Címlap Időjárás Ferihegy, Budapest Airport időjárás előrejelzés – METAR, TAF BUD/LHBP

Időjárás Ferihegy, Budapest Airport időjárás előrejelzés – METAR, TAF BUD/LHBP

Aktuális szöveges időjárásjelentés / METAR BUD/LHBP, és 24 órás szöveges időjárás-előrejelzés / TAF BUD/LHBP Budapest Liszt Ferenc Nemzetközi Repülőtér

Available data for LHBP from the past 6 hours
Metar
LHBP 201830Z VRB02KT 3000 R31L/1000U R31R/0900D FZBCFG BR NSC M05/M05 Q1017 R88/29//95 BECMG 2000
TAF
TAF LHBP 201715Z 2018/2118 VRB03KT 5000 BR SCT015 BKN050 BECMG 2018/2020 1200 FZBCFG BR NSC TEMPO 2020/2107 5000 BR BKN045 BECMG 2107/2110 CAVOK TEMPO 2110/2113 SCT035 BKN200

Szélirány és erősség Ferihegy és környéke

Európa műholdkép


6 napos időjárás előrejelzés – Budapest Ferihegy Airport


Data is taken from the National Weather Service at NOAA. Satelite image by AustroControl & Meteo-Mc. Only for spotters, do not use for real flight!

A METAR és a TAF adatok a National Weather Service adatbázisából származnak. Az oldalon közölt adatok tájékoztató jellegűek, az oldal üzemeltetője nem vállal felelősséget ezek esetleges pontatlanságáért. Ne használd valós repüléshez!

Néhány hasznos infó, mielőtt repülőre szállsz